#timestamp,LO_Frequency,Hit,StdDev 
1566417615.5,286047002.5,P
1566417635.3,286047001.6,N
1566417655.1,286047002.1,N
1566417675.9,286047001.6,N
1566417695.7,286047001.8,N
1566417715.6,286047002.4,Y
1566417735.4,286047000.4,P
1566417755.2,286047000.6,N
1566417775.1,286047000.4,N
1566417776.0,286047000.4,N
1566417795.8,286046998.2,Y
1566417815.7,286046998.3,P
1566417835.5,286046999.5,N
1566417855.3,286046999.1,N
1566417875.2,286046998.9,N
1566417895.0,286046998.3,N
1566417895.9,286046998.3,N
1566417915.7,286046999.1,N
1566417935.6,286046999.3,N
1566417955.4,286046999.5,N
1566417975.3,286046997.0,Y
1566417995.1,286046999.3,P
1566418015.8,286046998.4,P
1566418035.7,286047000.0,N
1566418055.5,286046999.9,N
1566418075.4,286046999.8,N
1566418095.2,286047000.5,N
1566418115.0,286047000.8,N
1566418115.9,286047000.8,N
1566418135.8,286047000.9,N
1566418155.6,286047000.2,N
1566418175.4,286046998.6,N
1566418195.3,286046998.5,N
1566418215.1,286047001.1,N
1566418235.9,286047000.1,N
1566418255.7,286047000.9,N
1566418275.5,286046998.6,N
1566418295.4,286046999.9,N
1566418315.2,286046999.8,N
1566418335.1,286047000.1,N
1566418336.0,286047000.1,N
1566418355.8,286047002.6,Y
1566418375.6,286047001.4,P
1566418395.5,286046999.8,N
1566418415.3,286047000.4,N
1566418435.1,286047002.8,Y
1566418455.9,286047000.9,P
1566418475.7,286047001.1,P
1566418495.6,286047000.8,N
1566418515.4,286047001.2,Y
1566418535.2,286046998.9,P
1566418555.1,286046998.6,N
1566418556.0,286046998.6,N
1566418575.8,286046999.2,N
1566418595.7,286047000.3,N
1566418615.5,286046998.6,N
1566418635.3,286047000.8,N
1566418655.2,286047000.7,N
1566418675.0,286046998.6,N
1566418675.9,286046998.6,N
1566418695.8,286047001.0,N
1566418715.6,286046998.2,N
1566418735.4,286047001.0,N
1566418755.3,286047000.6,N
1566418775.1,286047000.3,N
1566418795.8,286047000.6,N
1566418815.7,286046998.6,N
1566418835.5,286047000.7,N
1566418855.4,286046998.8,N
1566418875.2,286047000.9,N
1566418895.0,286046998.5,N
1566418895.9,286046998.5,N
1566418915.8,286046999.1,N
1566418935.6,286046997.1,N
1566418955.5,286046996.5,Y
1566418975.3,286046998.9,P
1566418995.1,286046998.8,P
1566419015.9,286047001.0,P
1566419035.7,286047001.0,N
1566419055.5,286047001.2,N
1566419075.4,286046998.4,N
1566419095.2,286047001.2,N
1566419115.1,286047000.3,N
1566419116.0,286047000.3,N
1566419135.8,286047000.5,N
1566419155.6,286046999.9,N
1566419175.5,286047002.7,N
1566419195.3,286047000.8,N
1566419215.2,286047000.9,N
1566419235.9,286047001.1,N
1566419255.7,286047000.8,N
1566419275.6,286046998.9,N
1566419295.4,286046998.6,N
1566419315.2,286046998.8,N
1566419335.1,286046998.7,N
1566419336.0,286046998.7,N
1566419355.8,286046998.1,N
1566419375.7,286046998.5,N
1566419395.5,286047001.1,N
1566419415.3,286046998.6,N
1566419435.2,286046998.1,N
1566419455.0,286047000.9,N
1566419455.9,286047000.9,N
1566419475.8,286047000.6,N
1566419495.7,286047000.2,N
1566419515.5,286047002.4,N
1566419535.4,286047004.1,Y
1566419555.2,286047003.2,P
1566419575.1,286047003.0,N
1566419576.0,286047003.0,N
1566419595.8,286047003.0,N
1566419615.6,286047004.1,Y
1566419635.5,286047002.5,P
1566419655.3,286047002.3,P
1566419675.2,286047002.7,P
1566419695.9,286047001.5,Y
1566419715.7,286046998.6,P
1566419735.6,286046998.9,N
1566419755.4,286046998.4,N
1566419775.2,286046998.1,N
1566419795.1,286046998.2,N
1566419796.0,286046998.2,N
1566419815.8,286047000.9,N
1566419835.7,286046998.5,N
1566419855.5,286046998.7,N
1566419875.3,286046998.8,N
1566419895.2,286046999.2,N
1566419915.0,286046999.2,N
1566419915.9,286046999.2,N
1566419935.8,286046999.2,N
1566419985.6,286046996.6,E
1566419995.6,286047001.2,N
1566420015.4,286047000.1,P
1566420035.2,286047000.3,N
1566420055.1,286047002.7,Y
1566420056.0,286047002.7,P
1566420075.8,286046999.7,N
1566420095.7,286047002.7,N
1566420115.5,286047002.4,N
1566420135.3,286047002.6,N
1566420155.2,286047002.1,N
1566420175.0,286047000.6,N
1566420175.9,286047000.6,N
1566420195.7,286047000.3,N
1566420215.6,286047001.2,N
1566420235.4,286046999.6,N
1566420255.3,286046998.4,N
1566420275.1,286046998.3,N
1566420295.8,286046998.7,N
1566420315.7,286047001.0,N
1566420335.5,286047000.9,N
1566420355.4,286046999.6,N
1566420375.2,286046996.6,N
1566420395.0,286046997.7,N
1566420395.9,286046997.7,N
1566420415.8,286046997.7,N
1566420435.6,286046997.4,N
1566420455.4,286046998.0,N
1566420475.3,286046997.8,N
1566420495.1,286046996.8,N
1566420515.9,286046997.6,N
1566420535.7,286046997.8,N
1566420555.5,286046994.9,N
1566420575.4,286046996.4,N
1566420595.2,286046996.0,N
1566420615.1,286046994.9,N
1566420616.0,286046994.9,N
1566420635.8,286046997.7,N
1566420655.6,286046995.4,N
1566420675.5,286046997.4,N
1566420695.3,286046996.8,N
1566420715.1,286046996.8,N
1566420735.9,286046997.4,N
1566420755.7,286046997.8,N
1566420775.6,286046994.9,Y
1566420795.4,286046996.7,P
1566420815.2,286046997.0,P
1566420835.1,286046997.6,P
1566420836.0,286046997.6,Y
1566420855.8,286046998.6,P
1566420875.7,286047001.2,N
1566420895.5,286046998.7,N
1566420915.3,286047001.1,N
1566420935.2,286047000.0,N
1566420955.0,286047002.8,N
1566420955.9,286047002.8,N
1566420975.8,286047001.6,N
1566420995.6,286047002.2,N
1566421015.4,286047004.2,N
1566421035.3,286047002.0,N
1566421055.1,286047001.5,N
1566421075.8,286047004.0,N
1566421095.7,286047004.1,N
1566421115.5,286047003.9,N
1566421135.4,286047001.3,N
1566421155.2,286047001.6,N
1566421175.0,286047001.8,N
1566421175.9,286047001.8,N
1566421195.8,286047003.9,N
